Location: Bouillancy
(49.1149°N, 2.9308°E)
Time: 19:54:40
(UTC+00:00)

MetOp-A - Visible Passes

Search period start: 26 January 2021 00:00
Search period end: 05 February 2021 00:00
Orbit: 819 x 821 km, 98.5° (Epoch: 26 January)

Date Brightness Start Highest point End Pass type
(mag) Time Alt. Az. Time Alt. Az. Time Alt. Az.
26 Jan 4.6 18:38:48 37° ENE 18:38:51 37° ENE 18:43:45 10° N visible
26 Jan 5.6 20:20:08 33° WNW 20:20:08 33° WNW 20:23:56 10° NNW visible
27 Jan 7.5 06:50:06 10° ENE 06:50:37 10° E 06:51:08 10° E visible
27 Jan 5.0 18:17:37 26° ENE 18:18:19 27° ENE 18:22:45 10° N visible
27 Jan 4.9 19:58:57 49° WNW 19:58:57 49° WNW 20:03:24 10° NNW visible
28 Jan 5.4 17:56:25 18° ENE 17:57:51 20° ENE 18:01:34 10° NNE visible
28 Jan 4.2 19:37:46 74° NW 19:37:46 74° NW 19:42:45 10° NNW visible
28 Jan 6.9 21:19:07 12° WNW 21:19:07 12° WNW 21:20:35 10° WNW visible
29 Jan 5.7 17:35:14 11° ENE 17:37:26 14° NE 17:40:09 10° NNE visible
29 Jan 4.0 19:16:34 72° E 19:16:39 73° ENE 19:22:01 10° N visible
29 Jan 6.5 20:57:55 18° W 20:57:55 18° W 21:01:03 10° NW visible
30 Jan 6.0 17:16:42 10° NE 17:17:05 10° NE 17:17:27 10° NE visible
30 Jan 4.2 18:55:23 48° E 18:56:00 50° ENE 19:01:11 10° N visible
30 Jan 6.0 20:36:44 27° W 20:36:44 27° W 20:40:54 10° NW visible
31 Jan 4.7 18:34:11 31° E 18:35:25 35° ENE 18:40:15 10° N visible
31 Jan 5.3 20:15:32 39° W 20:15:32 39° W 20:20:31 10° NNW visible
01 Feb 5.1 18:12:59 21° E 18:14:53 26° ENE 18:19:14 10° N visible
01 Feb 4.6 19:54:19 56° WSW 19:54:40 58° W 19:59:58 10° NNW visible
02 Feb 5.5 17:51:47 13° E 17:54:25 19° NE 17:58:03 10° NNE visible
02 Feb 4.1 19:33:07 66° S 19:33:54 83° WSW 19:39:18 10° NNW visible
02 Feb 6.8 21:14:28 13° W 21:14:50 13° W 21:17:22 10° WNW visible
03 Feb 5.8 17:31:30 10° E 17:34:01 14° NE 17:36:34 10° NNE visible
03 Feb 4.0 19:11:55 50° SE 19:13:12 69° ENE 19:18:33 10° N visible
03 Feb 6.4 20:53:16 20° W 20:53:49 20° W 20:57:41 10° NW visible
04 Feb 4.3 18:50:43 34° ESE 18:52:33 48° ENE 18:57:42 10° N visible
04 Feb 5.8 20:32:04 27° WSW 20:32:53 29° W 20:37:30 10° NW visible
